Sally Plumb Plumb

(23 9 1940 / Haverhill Suffolk England)

Stats

» Click to list general statistics » OR, select a date :

General Statistics

Visitors of the poet

Number of visitors of the poet’s mainpage in PoemHunter.Com

Attention : Numbers in this table does not indicate the total hits of poems of the poet, but indicates the hits of the poet’s main page.

Date Hits
08/01/2014 Friday 357
100%
07/31/2014 Thursday 350
98%
07/30/2014 Wednesday 184
51%
07/29/2014 Tuesday 177
49%
07/28/2014 Monday 209
58%
07/27/2014 Sunday 188
52%
07/26/2014 Saturday 191
53%
07/25/2014 Friday 150
42%
07/24/2014 Thursday 144
40%
07/23/2014 Wednesday 130
36%
07/22/2014 Tuesday 133
37%
07/21/2014 Monday 62
17%
07/20/2014 Sunday 63
17%
07/19/2014 Saturday 175
49%
07/18/2014 Friday 234
65%
07/17/2014 Thursday 240
67%
07/16/2014 Wednesday 53
14%
07/15/2014 Tuesday 47
13%
07/14/2014 Monday 138
38%
07/13/2014 Sunday 259
72%

Reader rating & num.of MyPoemList’s

Click the captions of columns to change the order.

# Poem Title Submit Date Reader Rating Num.of MyPoemList’s
Rating Num.R.
1 The Contest 06/05/2014 -- 0 0
2 Barn Owl 05/09/2014 10.0 1 0
3 Listen 05/08/2014 -- 0 0
4 Harmony 05/07/2014 10.0 1 0
5 Conflict 02/24/2014 10.0 2 0
6 Confession 02/11/2014 -- 0 0
7 Night Bird 02/07/2014 -- 0 0
8 Ebb Tide 02/03/2014 10.0 1 0
9 Many Hollows 01/03/2014 7.5 2 0
10 Night Ways 01/02/2014 -- 0 0
11 The Lion 01/01/2014 7.0 1 0
12 The Appointment 12/24/2013 -- 0 0
13 Flippancy 12/22/2013 9.0 2 0
14 Hit 12/21/2013 10.0 1 0
15 Negativity 11/11/2013 10.0 2 0
16 Too Old 10/28/2013 10.0 3 0
17 Three Phases 09/28/2013 10.0 1 0
18 Frightened Fourteen (Kids Stuff) 09/27/2013 10.0 1 0
19 Killing Time 09/23/2013 8.5 2 0
20 Rumour 08/30/2013 -- 0 0
21 Separation 08/14/2013 10.0 3 2
22 Shades Of Love 08/01/2013 10.0 4 1
23 Getting Fat 06/28/2013 9.7 3 0
24 Infinity 05/08/2013 10.0 5 1
25 Twilight 03/30/2013 10.0 4 2
26 Mind Healer 03/19/2013 9.5 2 0
27 Mute 03/18/2013 9.5 4 0
28 Down The Drain 03/07/2013 9.7 3 0
29 Monday Morning 03/06/2013 10.0 1 0
30 Imagination 03/05/2013 10.0 1 0
31 Earth Fire 12/08/2012 10.0 1 0
32 Nightmare 10/20/2012 10.0 2 0
33 Workday Weekday 10/17/2012 -- 0 0
34 Remorse 10/07/2012 -- 0 0
35 High Hopes 10/06/2012 -- 0 0
36 Lost For Words 10/04/2012 10.0 1 0
37 Confused? 08/15/2012 -- 0 0
38 Breakdown 08/14/2012 10.0 4 0
39 Departure 08/07/2012 10.0 2 0
40 Seagull 07/11/2012 10.0 4 0
41 Late Friday Night 06/29/2012 9.7 3 0
42 Rig Divers North Sea 06/28/2012 -- 0 0
43 Gossips 06/27/2012 10.0 3 0
44 Another Shade Of Blue 06/27/2012 10.0 5 1
45 Score 04/22/2012 10.0 2 0
46 Request 04/21/2012 10.0 1 0
47 Tough Love 04/18/2012 10.0 3 0
48 Stairway 03/23/2012 10.0 1 0
49 Wind And Rain 02/20/2012 10.0 3 0
50 Dawn 02/09/2012 -- 0 0
51 Defeat 02/08/2012 10.0 2 0
52 Jack Spratt 12/27/2011 9.7 3 0
53 Beyond 12/06/2011 -- 0 0
54 Undressed 12/05/2011 -- 0 0
55 Letter 11/28/2011 10.0 1 0
56 Fantasia 11/24/2011 -- 0 0
57 Betrayel 11/22/2011 -- 0 0
58 Grandmama 11/21/2011 -- 0 0
59 Crimes 11/01/2011 9.7 3 0
60 Swing High Swing Low 10/07/2011 10.0 1 1
61 Destiny 10/05/2011 10.0 1 0
62 Silken Thread 10/02/2011 -- 0 0
63 Seeing You 10/01/2011 10.0 1 0
64 Fractions 09/30/2011 -- 0 0
65 Question 09/28/2011 -- 0 0
66 Birth 09/09/2011 -- 0 0
67 The Voice Of Seduction 09/07/2011 -- 0 0
68 Second Depression 08/10/2011 -- 0 0
69 Crumbs 08/06/2011 10.0 1 0
70 Night Sky 07/08/2011 9.0 2 0
71 The Social Divide 07/04/2011 -- 0 0
72 Retort 07/01/2011 10.0 1 0
73 Mr Jones 06/15/2011 -- 0 0
74 Bitter Beginning 06/13/2011 -- 0 0
75 Imagine 06/03/2011 -- 0 0
76 Gabriel 06/02/2011 -- 0 0
77 The Shift Worker 05/25/2011 8.0 1 0
78 Downtown 05/20/2011 -- 0 0
79 Skin 05/19/2011 -- 0 0
80 Natural Tempo 05/18/2011 10.0 2 0
81 Magical Night 04/14/2011 10.0 1 0
82 Conversation 04/12/2011 -- 0 0
83 Aunt Summer Rose (kids stuff) 04/08/2011 -- 0 0
84 Eden's Gate 04/07/2011 -- 0 0
85 First Season 03/29/2011 -- 0 0
86 November 03/09/2011 10.0 1 0
87 Chores 03/08/2011 10.0 1 0
88 Torment 03/05/2011 -- 0 0
89 Over Time 02/19/2011 -- 0 0
90 The Thaw 02/18/2011 10.0 1 0
91 Jukes Song 02/14/2011 -- 0 0
92 Thinks Party 02/12/2011 10.0 2 1
93 Predator 02/11/2011 -- 0 0
94 Headless 02/08/2011 6.0 1 0
95 Annie May 01/06/2011 10.0 1 0
96 Look 01/05/2011 -- 0 0
97 Slough Of Despond 12/11/2010 10.0 2 0
98 The Dryad 12/04/2010 -- 0 0
99 Christmas Day 12/03/2010 10.0 1 0
100 Snake Skin 12/01/2010 10.0 1 0
101 Opposition 11/12/2010 -- 0 0
102 Natures Way 10/13/2010 -- 0 0
103 Bad Rivers 10/12/2010 10.0 3 0
104 Calling Wind 10/01/2010 9.8 4 0
105 Decision 09/23/2010 10.0 1 0
106 Passing Tedious Time 08/26/2010 -- 0 0
107 Zero 08/10/2010 10.0 3 0
108 1957 08/04/2010 9.5 4 0
109 Singing Lesson 08/02/2010 -- 0 0
110 Evening At Home 06/29/2010 10.0 2 0
111 Not Tonight 06/28/2010 -- 0 0
112 6 P.M. 06/08/2010 9.5 2 0
113 Orange 06/01/2010 10.0 1 0
114 Yellow Iris 05/23/2010 10.0 1 0
115 Shower 05/22/2010 -- 0 0
116 Reunion 05/17/2010 -- 0 0
117 Shadow 05/16/2010 10.0 1 0
118 Explanation 05/15/2010 -- 0 0
119 Spirit 05/14/2010 10.0 2 1
120 The Haunted 05/13/2010 10.0 1 0
121 Live Music 05/13/2010 10.0 1 0
122 Wren 03/13/2010 10.0 1 0
123 Spring Weather 03/12/2010 -- 0 0
124 Breathing 02/09/2010 10.0 3 1
125 Unfamiliar Fantasy 01/22/2010 10.0 1 0
126 Climate Change 12/26/2009 10.0 1 0
127 Missing Person 12/25/2009 -- 0 0
128 Languor 12/24/2009 10.0 1 0
129 Side Affects 12/23/2009 10.0 2 0
130 Unspeakable 12/22/2009 10.0 1 0
131 Summer 12/14/2009 10.0 1 0
132 High 12/12/2009 -- 0 0
133 Speechless 12/05/2009 10.0 2 1
134 Insight 11/14/2009 10.0 3 0
135 The Haunted Sea (kids stuff) 11/05/2009 10.0 2 0
136 Flight 10/15/2009 10.0 3 0
137 Ripple 10/09/2009 10.0 1 0
138 Perfect Silence 10/07/2009 8.8 6 1
139 Starters 10/02/2009 10.0 1 0
140 Pastel 09/24/2009 10.0 3 0
141 Sleep 09/18/2009 10.0 4 0
142 Spirit Wings 09/07/2009 10.0 1 0
143 Annoyance 09/05/2009 10.0 3 0
144 Lyric 09/02/2009 10.0 3 0
145 Weeping Willow 08/29/2009 9.5 2 3
146 Ritual 08/12/2009 10.0 1 0
147 Enrichment 08/10/2009 10.0 1 0
148 Recruit 07/30/2009 10.0 1 0
149 Bebe 07/29/2009 10.0 3 1
150 Music 07/28/2009 10.0 2 0
151 Saturday Night and Sunday Morning 07/22/2009 -- 0 1
152 The Red Indian 07/10/2009 10.0 1 0
153 Be Kind Be Sweet 07/08/2009 9.5 2 1
154 Late Afternoon 07/07/2009 10.0 1 0
155 Left Undead 07/06/2009 -- 0 0
156 Cloud 07/02/2009 10.0 3 2
157 Foxglove 06/28/2009 10.0 1 0
158 The Chain 06/17/2009 -- 0 0
159 Song Of A Dying Infant 06/03/2009 10.0 1 0
160 Confrontation (Darfur) 05/29/2009 10.0 5 0
161 Late Summer 05/18/2009 -- 0 1
162 A Question Of God 05/17/2009 9.6 9 1
163 Death Of A Woman 05/12/2009 10.0 3 0
164 Angels 05/09/2009 10.0 6 1
165 A Dark Fire 05/08/2009 10.0 6 1
166 Fight 05/07/2009 10.0 2 0
167 We Are 05/06/2009 10.0 3 0
168 Shadow Street 05/05/2009 7.3 3 0
169 Rendezvous 05/04/2009 9.5 2 0
170 Lifting 05/03/2009 10.0 1 0
171 A Humorous Death 05/02/2009 10.0 5 3
172 Thought 05/01/2009 9.5 4 0
173 Leaving 04/30/2009 -- 0 0
174 The Queue 04/29/2009 10.0 1 0
175 Granpa 04/28/2009 10.0 1 0
176 Two Confused 04/27/2009 10.0 1 1
177 Breakfast 04/26/2009 9.7 7 1
178 Happiness Is Sacred 04/25/2009 10.0 1 0
179 Crucible 04/24/2009 9.7 3 0
180 Valentine 04/23/2009 10.0 2 1
181 Hettie 04/06/2009 10.0 2 0
182 SIX A.M. 04/04/2009 -- 0 0
183 Diary 04/01/2009 9.3 3 2
184 Possession 03/31/2009 10.0 1 1
185 Pretence 03/30/2009 10.0 1 1
186 Sundial 03/29/2009 7.5 4 0
187 Sleep My Love 03/28/2009 10.0 2 2
188 Reynard 03/27/2009 -- 0 0
189 Lucifer 03/26/2009 -- 0 0
190 Picture 03/25/2009 10.0 1 2
191 Dream On 03/24/2009 10.0 1 2
192 Something Plus 03/23/2009 -- 0 1
193 Love 03/22/2009 10.0 1 0
194 Curse 03/21/2009 -- 0 0
195 Solitude 03/20/2009 10.0 1 1
196 Anger 03/19/2009 10.0 2 2
197 Moon Song 03/18/2009 10.0 2 2
198 Winter 03/15/2009 9.8 5 1
199 Summer Shade 03/15/2009 9.0 2 1
200 Skylark 03/15/2009 10.0 1 0
201 Simplicity 03/14/2009 10.0 1 0
202 Snowdrops 03/14/2009 10.0 1 1
203 Upside Down 03/14/2009 10.0 2 0
204 The Native 03/14/2009 10.0 1 0
205 Search 03/14/2009 10.0 2 0
206 Surprise Suprise 03/14/2009 10.0 1 0
207 Changeover 03/14/2009 10.0 3 1
208 He Is 03/14/2009 10.0 3 0
209 Guide 03/14/2009 10.0 2 1
210 Vow 03/14/2009 10.0 3 0
211 Cats 03/14/2009 9.5 2 1
212 Love After Death 03/14/2009 10.0 1 1
213 The Juveniles 03/14/2009 10.0 2 0
214 Serenade 03/14/2009 10.0 1 0
215 Poppies 03/14/2009 10.0 2 0
216 May 03/14/2009 10.0 1 0
217 Village Tree 03/14/2009 9.5 2 0
218 Sunrise 03/14/2009 10.0 2 1
219 Sparrows 03/14/2009 10.0 3 0
220 Figment 03/14/2009 10.0 2 1
221 A Slow Smoke 03/14/2009 9.8 4 1
222 Time Past 03/14/2009 10.0 2 2
223 Good Night 03/14/2009 10.0 2 1
224 The Satyr 03/14/2009 10.0 1 0
225 Somewhere 03/14/2009 10.0 1 1
226 Formation 03/14/2009 -- 0 1
227 Wildflowers Live On 03/14/2009 10.0 4 2
228 Apple Tree 03/14/2009 10.0 7 2
229 Purer Than White 03/14/2009 10.0 2 0
230 Goodnight Baby Love 03/14/2009 10.0 1 1
231 Storm 03/14/2009 10.0 1 2
232 Headstones 03/14/2009 10.0 1 0
233 Underfoot 03/14/2009 10.0 1 0
234 Fantasy 03/14/2009 10.0 3 1
235 Smile 03/14/2009 10.0 2 2
236 Judas 03/14/2009 10.0 1 0
237 Domestic 03/14/2009 10.0 2 0
238 Ghost 03/14/2009 10.0 2 2
239 Rowley 03/14/2009 -- 0 0
240 Starless 03/14/2009 10.0 2 2
241 Reflection 03/14/2009 -- 0 2
242 Pretty 03/14/2009 9.0 2 1
[Hata Bildir]